Other Public Products
Issued by NWS Grand Forks, ND

Home | Current Version | Previous Version | Graphics & Text | Print | Product List | Glossary On
Versions: 1 2 3 4 5 6 7 8 9 10 11 12 13 14 15 16 17 18 19 20 21 22 23 24 25 26 27 28 29 30 31 32 33 34 35 36 37 38 39 40 41 42 43 44 45 46 47 48 49 50
000
FPUS83 KFGF 261010
OPUFGF
PRAIRIE TO PINES WEATHER ROUNDUP
NATIONAL WEATHER SERVICE EASTERN NORTH DAKOTA/GRAND FORKS ND
400 AM CST WED NOV 26 2014

 **SATELLITE DATA USED TO AUGMENT SKY COVER AT AUTOMATED STATIONS**
 *****  WEATHER ACROSS EASTERN NORTH DAKOTA  *****

CITY           SKY/WX    TMP DP  RH WIND       PRES   REMARKS
GRAND FORKS    PTCLDY     2  -4  76 N15G26    30.28R WCI -17
GRAND FORKS AF PTCLDY     1  -4  80 N20       30.28R WCI -20
GRAND CITY NWS   N/A      1 N/A N/A N22         N/A  WCI -21
BUXTON         NOT AVBL
DEVILS LAKE    CLOUDY     3  -9  55 N15       30.24R WCI -15
FARGO          LGT SNOW  12   7  80 N22       30.20R WCI  -7
WAHPETON ARPT  CLOUDY    18  14  86 N17       30.13R WCI   2
$$

 *****  WEATHER ACROSS CENTRAL AND WESTERN NORTH DAKOTA  *****

CITY           SKY/WX    TMP DP  RH WIND       PRES   REMARKS
JAMESTOWN      MOCLDY     5   0  79 N13       30.20R WCI -12
BISMARCK       CLOUDY    11   6  81 N8        30.28R WCI  -1
MINOT          LGT SNOW   5   0  79 NW3       30.27R
MINOT AFB      LGT SNOW   5   3  92 NW3       30.28S FOG
GARRISON         N/A      7   2  80 N5        30.25R WCI  -2
WILLISTON      LGT SNOW  16  12  84 N3        30.25R FOG
DICKINSON      CLOUDY    19  15  84 CALM      30.17S
HETTINGER      CLOUDY    21  18  88 N9        30.19R WCI  11
$$

 *****  OTHER OBSERVATIONS NORTHEAST NORTH DAKOTA  *****

CITY           SKY/WX    TMP DP  RH WIND       PRES   REMARKS
WALHALLA         N/A     -2  -9  71 N12       30.36R WCI -20
LANGDON        PTSUNNY   -2  -8  78 N13       30.26R WCI -21
CAVALIER       PTSUNNY   -2  -8  78 N13       30.35R WCI -21
GRAFTON        FAIR       0  -8  71 N15       30.33R WCI -20
CANDO          CLOUDY     0  -4  85 N10       30.29R WCI -17
FORT TOTTEN      N/A      3  -2  79 N7        29.95S WCI  -9
ROLLA          CLOUDY     0  -4  85 N9        30.26R WCI -16
RUGBY          FAIR       1  -2  85 NE9       30.29R WCI -14
 ***** THE ABOVE OBSERVATIONS ARE NON NWS ARE NOT QUALITY
        CONTROLLED AND MAY MIS-REPORT RAIN FOR SNOW...
$$

 *****  OTHER OBSERVATIONS SOUTHEAST NORTH DAKOTA *****

CITY           SKY/WX    TMP DP  RH WIND       PRES   REMARKS
COOPERSTOWN    NOT AVBL
VALLEY CITY    CLOUDY     7   3  85 N14G20    30.19R WCI -10
OAKES            N/A     10   9  92 N18G26    30.16R WCI  -8
GWINNER        CLOUDY    14  10  85 N24G30    30.16R WCI  -5
SHEYENNE NWR     N/A     12   8  82 N12       29.95  WCI  -2
BUFFALO        NOT AVBL
WYNDMERE         N/A     12  10  92 VRB15       N/A  WCI  -4
 ***** THE ABOVE OBSERVATIONS ARE NON NWS ARE NOT QUALITY
       CONTROLLED AND MAY MIS-REPORT RAIN FOR SNOW...
$$

  *****  WEATHER ACROSS NORTHERN MINNESOTA  *****

CITY           SKY/WX    TMP DP  RH WIND       PRES   REMARKS
FLAG ISLAND    CLEAR      0  -6  78 N10       30.22R WCI -17
WARROAD        CLEAR      1  -2  85 NW8       30.22R WCI -12
ROSEAU         CLEAR      1  -2  85 N12       30.24R WCI -15
HALLOCK        CLOUDY    -2  -9  71 N15       30.31R WCI -22
THF RVR FALLS  CLOUDY     7   1  78 N13       30.21R WCI  -9
HALSTAD          N/A      8   5  88 N21         N/A  WCI -12
FOSSTON        CLOUDY    10   7  85 N15       30.16R WCI  -6
BAUDETTE       MOCLDY     7   3  84 N9        30.17R WCI  -7
WASKISH        FLURRIES  12   9  85 CALM      30.15R
CROOKSTON      PTCLDY     7   1  78 N18       30.26R WCI -12
$$
  *****  WEATHER ACROSS CENTRAL AND WEST MINNESOTA  *****

CITY           SKY/WX    TMP DP  RH WIND       PRES   REMARKS
BEMIDJI        LGT SNOW  15  11  87 N9        30.12R WCI   3
PARK RAPIDS    LGT SNOW  17  13  84 N6        30.08R FOG     WCI   9
WADENA         CLOUDY    18  12  79 N7        30.07R WCI   8
DETROIT LAKES  LGT SNOW  19  18  93 N9        30.11R WCI   9
MOORHEAD       MIX PCPN  14  14 100 N18G25    30.18R WCI  -3
FERGUS FALLS   FLURRIES  19  14  79 N7        30.13R WCI  10
ELBOW LAKE     LGT SNOW  19  16  86 N13       30.07R WCI   6
MORRIS MN      LGT SNOW  21  18  86 N13       30.04R WCI   9
STAPLES        FLURRIES  18  12  79 N5        30.08R WCI  11
WHEATON        LGT SNOW  19  18  93 N13G20    30.11R WCI   7
$$
  *****  WEATHER ELSEWHERE ACROSS MINNESOTA  *****

CITY           SKY/WX    TMP DP  RH WIND       PRES   REMARKS
DULUTH         CLOUDY    20  10  65 CALM      30.05S
INTRNTL FALLS  LGT SNOW  13   8  81 N8        30.13S WCI   2
ELY            CLOUDY    10   9  92 CALM      30.07S
CLOQUET        CLOUDY    19  12  73 CALM      30.06S
BRAINERD       LGT SNOW  19  13  77 NE5       30.07R WCI  12
HIBBING        LGT SNOW  20  11  68 CALM      30.08R
ALEXANDRIA     CLOUDY    20  13  74 NE12      30.05R WCI   8
SAINT CLOUD    CLOUDY    24  16  71 NE6       30.04R WCI  17
MINNEAPOLIS    CLOUDY    24  15  68 E8        30.04R WCI  15
$$

  *****  WEATHER ACROSS SOUTH DAKOTA  *****

CITY           SKY/WX    TMP DP  RH WIND       PRES   REMARKS
SIOUX FALLS    LGT SNOW  30  28  92 NE7       29.87R FOG     WCI  23
BROOKINGS      NOT AVBL
WATERTOWN      LGT SNOW  21  17  84 N25       29.98R FOG     WCI   4
HURON          LGT SNOW  25  22  88 N23G31    30.01R FOG     WCI  10
SISSETON         N/A     19  17  92 N22       30.10R WCI   2
ABERDEEN       LGT SNOW  16  11  80 N22G30    30.13R WCI  -2
MITCHELL       CLOUDY    34  32  92 N20       29.93R WCI  23
PIERRE         CLOUDY    21  16  81 N20G31    30.14R WCI   6
MOBRIDGE       CLOUDY    17  12  80 N25       30.16R WCI  -1
RAPID CITY     CLOUDY    25  20  81 N20       30.16R WCI  11
$$

  *****  SOME WEATHER IN NEARBY STATES *****

CITY           SKY/WX    TMP DP  RH WIND       PRES   REMARKS
GLASGOW MT     CLOUDY    21  16  81 S3        30.22R
GREAT FALLS MT LGT SNOW  28  28 100 CALM      30.13R FOG
CHEYENNE WY    LGT SNOW  23  17  78 N15G22    30.12R WCI  10
SCOTTSBLUFF NE CLOUDY    31  25  78 NW12      30.15R WCI  22
OMAHA NE       CLOUDY    39  35  86 NW9       29.85S
DES MOINES IA  LGT SNOW  31  27  85 SE9       29.90F FOG     WCI  23
DAVENPORT IA   MOCLDY    17  14  88 E8        30.08F WCI   7
CHICAGO IL     CLEAR     19  15  84 E8        30.14F WCI   9
EAU CLAIRE WI  MOCLDY    20  13  74 E6        30.07F WCI  12
LA CROSSE WI   PTCLDY    19  14  81 E3        30.08F
$$

  *****  SOME NATIONAL WEATHER *****

CITY           SKY/WX    TMP DP  RH WIND       PRES   REMARKS
LA GUARDIA NY  CLOUDY    49  29  46 N10       30.11F
RALEIGH NC     RAIN      49  46  90 N10G20    29.90F VSB 1
ATLANTA GA     CLOUDY    47  32  56 NW10G22   29.99R
NEW ORLEANS LA CLEAR     38  32  79 CALM      30.21S
OKLAHOMA CITY  PTCLDY    37  27  67 SW7       29.96S
ALBUQUERQUE NM PTCLDY    37   7  28 W3        30.33R
SALT LAKE CITY PTCLDY    40  28  62 SE5       30.34R
LOS ANGELES CA CLEAR     57  32  38 E3        30.24F
BOISE ID       MOCLDY    47  38  71 N3        30.29S
SEATTLE WA     MOCLDY    56  53  90 S16G23    30.18F
$$

*** WEATHER ACROSS MANITOBA...SASKATCHEWAN AND ONTARIO ***
                ***ONTARIO***

CITY           SKY/WX    TMP DP  RH WIND       PRES   REMARKS
GERALDTON      FLURRIES   1  -2  85 N2        30.14S
THUNDER BAY    CLOUDY    14  12  92 CALM      30.16R
SIOUX LOOKOUT  CRYSTALS  -6  -9  84 N5        30.18R WCI -17
TORONTO        CLOUDY    34  27  75 SE3       30.19F
BIG TROUT LK   CLEAR    -22 -27  76 W8        30.20R WCI -41
PICKLE LAKE    NOT AVBL
DRYDEN         CLEAR     -2  -4  92 N6        30.17R WCI -14
KENORA         FLURRIES  -6  -9  84 N6        30.20R WCI -18
$$
                *** MANITOBA***

CITY           SKY/WX    TMP DP  RH WIND       PRES   REMARKS
BRANDON        CLOUDY    -2  -9  71 NE3       30.34R
DAUPHIN        CLEAR    -18 -24  76 W6        30.40R WCI -33
ISLAND LAKE    CLEAR    -20 -26  76 W12       30.28S WCI -42
PILOT MOUND      N/A     -4  -8  84 N12         N/A  WCI -22
THE PAS        CLEAR    -18 -24  76 W3        30.40S
THOMPSON       NOT AVBL
WINNIPEG       CLEAR    -17 -24  70 NW8       30.38R WCI -34
LYNN LAKE      CLEAR    -22 -27  76 NW7       30.30S WCI -39
CHURCHILL      CRYSTALS  -9 -15  77 NW16G23   30.18R BLWGSNOWWCI -32
$$
                ***SASKATCHEWAN***

CITY           SKY/WX    TMP DP  RH WIND       PRES   REMARKS
ESTEVAN        FLURRIES   5   1  85 N8        30.26  WCI  -8
KINDERSLEY     CLOUDY    10   7  85 SE5       30.24S WCI   2
LLOYDMINSTER   FLURRIES   1  -2  85 E6        30.27S WCI -10
PRINCE ALBERT  CRYSTALS -24 -29  76 CALM      30.40R
REGINA         FLURRIES  -6  -8  92 N5        30.31R WCI -17
YORKTON        CLEAR     -9 -15  77 NW5       30.33R WCI -21


USA.gov is the U.S. government's official web portal to all federal, state and local government web resources and services.